Find Starlink 1578

NORAD ID: 46082 Int'l Des: 2020-055 Owner: SPXS Country: US Constellation: starlink operational
LEOCIRCULARSTARLINK_TYPE

Live Position

Loading 3D Globe...

About Starlink 1578

Description loading...

Upcoming Passes

Passes for default location (London). Set your location on the main map for personalized predictions.

Altitude History

Loading altitude history...

Two-Line Element Set

1 46082U 20055BH 26106.00002315 .00074807 00000-0 28310-2 0 9990
2 46082 53.1295 288.0137 0000769 85.4675 334.0103 15.26287098 5808
Epoch: Apr 16, 2026 • Age: 11 hours

Current Status

Altitude 492.3 km
Velocity 7.62 km/s
Sub-Earth Point -19.38°S, 93.37°W
Launch Date Aug 7, 2020
Age 5.6 years
Type internet

Technical Details

Classification Payload
Mass 260.00 kg
Dry Mass 248.00 kg
Total Mass 260.00 kg
Length 0.20 m
Diameter 2.80 m
Span 9.00 m
Shape Box + pan
Manufacturer SPXS
Bus Type Starlink
Phase Status In Orbit
Owner/State SPXS/US

Most Searched